Location: *
(47.2969°N, 10.2930°E)
Time: 09:23:19
(UTC+00:00)

MONITOR-E - Pass Details

Date: 09 April 2020
Orbit: 309 x 314 km, 97.0° (Epoch: 24 May)

Event Time Altitude Azimuth Distance (km) Brightness Sun altitude
Exits shadow 18:39:44 - 159° (SSE) 1,855 7.1 -7.3°
Reaches altitude 10° 18:41:09 10° 155° (SSE) 1,234 6.2 -7.5°
Maximum altitude 18:43:43 58° 76° (ENE) 386 3.8 -7.9°
Drops below altitude 10° 18:46:22 10° 355° (N) 1,260 7.0 -8.3°
Sets 18:48:17 0° 352° (N) 2,106 8.3 -8.6°
